Location: Newark
(46.9000°N, 28.3500°E)
Time: 04:17:52
(UTC+00:00)

Vanguard 1 Rocket - Pass Details

Date: 02 September 2019
Orbit: 651 x 4225 km, 34.3° (Epoch: 20 September)

Event Time Altitude Azimuth Distance (km) Brightness Sun altitude
Rises 22:22:28 0° 241° (WSW) 3,841 - -35.2°
Reaches altitude 10° 22:26:14 10° 224° (SW) 2,487 - -35.2°
Maximum altitude 22:29:59 19° 180° (S) 1,672 - -35.1°
Drops below altitude 10° 22:33:10 10° 133° (SE) 2,064 - -35.0°
Sets 22:35:55 0° 114° (ESE) 2,964 - -35.0°
